Gulfport, MS

11:55 PM CDT on June 26, 2017 (GMT -0500)
Gulfport-Biloxi Regional

Weather History for KGPT - November, 2012

Change the Weather History Date:

Friday, November 30, 2012

  Actual Average Record
Temperature  
Mean Temperature 58 °F -  
Max Temperature 69 °F 66 °F 85 °F (1950)
Min Temperature 46 °F 48 °F 26 °F (1979)
Degree Days  
Heating Degree Days 8    
Growing Degree Days 8 (Base 50)    
Moisture  
Dew Point 51 °F    
Average Humidity 89    
Maximum Humidity 100    
Minimum Humidity 65    
Precipitation  
Precipitation 0.01 in - - ()
Sea Level Pressure  
Sea Level Pressure 30.24 in    
Wind  
Wind Speed 2 mph (East)    
Max Wind Speed 10 mph    
Max Gust Speed -    
Visibility 6 miles    
Events Fog    
Averages and records for this station are not official NWS values.
T = Trace of Precipitation, MM = Missing Value Source: NWS Daily Summary

Daily Weather History Graph

Daily Weather History Graph

Search for Another Location

Airport or City:

Trip Planner

Search our weather history database for the weather conditions in past years. The results will help you decide how hot, cold, wet, or windy it might be!

Date:

Astronomy

Nov. 30, 2012 Rise Set
Actual Time 6:35 AM CST 4:55 PM CST
Civil Twilight 6:08 AM CST 5:21 PM CST
Nautical Twilight 5:39 AM CST 5:50 PM CST
Astronomical Twilight 5:10 AM CST 6:20 PM CST
Moon 6:49 PM CST (11/30) 8:07 AM CST (11/30)
Length of Visible Light 11h 12m
Length of Day
10h 20m
Waning Gibbous, 96% of the Moon is Illuminated
Nov 30
Waning Gibbous
Dec 6
Last Quarter
Dec 13
New
Dec 19
First Quarter
Dec 28
Full

Hourly Weather History & Observations

Time (CST) Temp. Dew Point Humidity Pressure Visibility Wind Dir Wind Speed Gust Speed Precip Events Conditions
12:53 AM 48.9 °F 46.9 °F 93% 30.27 in 9.0 mi North 3.5 mph - N/A   Mostly Cloudy
1:53 AM 48.9 °F 45.0 °F 86% 30.27 in 10.0 mi Calm Calm - N/A   Mostly Cloudy
2:53 AM 48.0 °F 45.0 °F 89% 30.27 in 10.0 mi Calm Calm - N/A   Clear
3:53 AM 46.9 °F 44.1 °F 90% 30.26 in 9.0 mi Calm Calm - N/A   Clear
4:53 AM 46.9 °F 44.1 °F 90% 30.26 in 9.0 mi NNE 3.5 mph - N/A   Scattered Clouds
5:53 AM 48.0 °F 45.0 °F 89% 30.26 in 9.0 mi NE 5.8 mph - N/A   Partly Cloudy
6:53 AM 48.0 °F 45.0 °F 89% 30.26 in 7.0 mi Calm Calm - N/A   Partly Cloudy
7:53 AM 52.0 °F 48.0 °F 86% 30.28 in 8.0 mi NE 4.6 mph - N/A   Scattered Clouds
8:53 AM 57.9 °F 50.0 °F 75% 30.29 in 10.0 mi East 4.6 mph - N/A   Partly Cloudy
9:53 AM 63.0 °F 53.1 °F 70% 30.29 in 10.0 mi Variable 3.5 mph - N/A   Partly Cloudy
10:53 AM 66.0 °F 55.9 °F 70% 30.28 in 10.0 mi Calm Calm - N/A   Scattered Clouds
11:53 AM 69.1 °F 57.0 °F 65% 30.25 in 10.0 mi SE 9.2 mph - N/A   Scattered Clouds
12:53 PM 69.1 °F 57.9 °F 68% 30.22 in 10.0 mi SSE 10.4 mph - N/A   Clear
1:53 PM 68.0 °F 57.9 °F 70% 30.20 in 10.0 mi SE 6.9 mph - N/A   Clear
2:53 PM 68.0 °F 59.0 °F 73% 30.20 in 10.0 mi SSE 10.4 mph - N/A   Clear
3:53 PM 66.9 °F 59.0 °F 76% 30.19 in 10.0 mi South 5.8 mph - N/A   Clear
4:53 PM 62.1 °F 57.9 °F 86% 30.19 in 9.0 mi Calm Calm - N/A   Clear
5:53 PM 57.0 °F 55.0 °F 93% 30.21 in 7.0 mi Calm Calm - N/A   Clear
6:53 PM 55.0 °F 54.0 °F 96% 30.22 in 7.0 mi Calm Calm - N/A   Clear
7:53 PM 52.0 °F 51.1 °F 97% 30.23 in 7.0 mi Calm Calm - N/A   Clear
8:53 PM 51.8 °F 50.0 °F 94% 30.22 in 4.0 mi Calm Calm - N/A   Clear
9:04 PM 51.8 °F 50.0 °F 94% 30.22 in 4.0 mi Calm Calm - N/A   Scattered Clouds
9:16 PM 51.8 °F 50.0 °F 94% 30.22 in 1.5 mi Calm Calm - N/A   Scattered Clouds
9:25 PM 51.8 °F 50.0 °F 94% 30.22 in 1.5 mi Calm Calm - N/A   Scattered Clouds
9:53 PM 48.9 °F 48.9 °F 100% 30.23 in 2.5 mi Calm Calm - N/A   Scattered Clouds
10:00 PM 50.0 °F 48.2 °F 94% 30.23 in 0.2 mi Calm Calm - N/A Fog Fog
10:53 PM 48.9 °F 48.9 °F 100% 30.23 in 0.5 mi Calm Calm - 0.01 in Fog Fog
11:01 PM 48.2 °F 48.2 °F 100% 30.23 in 2.0 mi Calm Calm - N/A   Overcast
11:11 PM 48.2 °F 48.2 °F 100% 30.23 in 0.8 mi Calm Calm - N/A   Mist
11:21 PM 48.2 °F 48.2 °F 100% 30.23 in 0.2 mi Calm Calm - N/A Fog Fog
11:32 PM 48.2 °F 48.2 °F 100% 30.22 in 0.5 mi Calm Calm - N/A Fog Fog
11:43 PM 48.2 °F 48.2 °F 100% 30.22 in 0.2 mi Calm Calm - N/A Fog Fog
11:53 PM 48.9 °F 48.9 °F 100% 30.22 in 0.2 mi Calm Calm - N/A Fog Fog